Weather History for Crestview, FL

Change the Weather History Date:

Saturday, January 5, 2013

  Actual Average Record
Temperature  
Mean Temperature 44 °F -  
Max Temperature 53 °F - - ()
Min Temperature 36 °F - - ()
Degree Days  
Heating Degree Days 20    
Moisture  
Dew Point 33 °F    
Average Humidity 62    
Maximum Humidity 90    
Minimum Humidity 37    
Precipitation  
Precipitation 0.00 in - - ()
Sea Level Pressure  
Sea Level Pressure 30.32 in    
Wind  
Wind Speed 3 mph (NE)    
Max Wind Speed 9 mph    
Max Gust Speed -    
Visibility 10 miles    
Events Rain    
T = Trace of Precipitation, MM = Missing Value Source: NWS Daily Summary

Daily Weather History Graph

Daily Weather History Graph

Search for Another Location

Airport:

Trip Planner

Search our weather history database for the weather conditions in past years. The results will help you decide how hot, cold, wet, or windy it might be!

Date:

Astronomy

Jan. 05, 2013 Rise Set
Actual Time 6:44 AM CST 4:59 PM CST
Civil Twilight 6:17 AM CST 5:25 PM CST
Nautical Twilight 5:48 AM CST 5:55 PM CST
Astronomical Twilight 5:18 AM CST 6:24 PM CST
Moon 12:04 AM CST (1/5) 11:36 AM CST (1/5)
Length of Visible Light 11h 07m
Length of Day
10h 14m
Last Quarter, 44% of the Moon is Illuminated
Jan 5
Last Quarter
Jan 11
New
Jan 18
First Quarter
Jan 26
Full
Feb 3
Last Quarter

Hourly Weather History & Observations

Time (CST) Temp. Windchill Dew Point Humidity Pressure Visibility Wind Dir Wind Speed Gust Speed Precip Events Conditions
12:55 AM 38.1 °F - 33.8 °F 84% 30.35 in 10.0 mi Calm Calm - N/A   Clear
1:55 AM 36.7 °F - 34.0 °F 90% 30.36 in 10.0 mi Calm Calm - N/A   Clear
2:55 AM 36.9 °F 34.3 °F 32.0 °F 83% 30.35 in 10.0 mi North 3.5 mph - N/A   Clear
3:55 AM 36.1 °F - 30.9 °F 81% 30.35 in 10.0 mi Calm Calm - N/A   Clear
4:55 AM 36.5 °F - 29.7 °F 76% 30.35 in 10.0 mi Calm Calm - N/A   Clear
5:55 AM 36.3 °F - 29.8 °F 77% 30.35 in 10.0 mi Calm Calm - N/A   Clear
6:55 AM 36.9 °F 34.3 °F 30.0 °F 76% 30.36 in 10.0 mi NNE 3.5 mph - N/A   Partly Cloudy
7:55 AM 40.6 °F 37.5 °F 30.2 °F 66% 30.37 in 10.0 mi NE 4.6 mph - N/A   Clear
8:55 AM 45.3 °F 41.1 °F 28.8 °F 52% 30.38 in 10.0 mi ENE 8.1 mph - N/A   Clear
9:55 AM 50.0 °F - 26.4 °F 40% 30.37 in 10.0 mi ENE 9.2 mph - N/A   Clear
10:55 AM 53.2 °F - 27.3 °F 37% 30.36 in 10.0 mi Variable 3.5 mph - N/A   Overcast
11:55 AM 53.2 °F - 28.4 °F 38% 30.32 in 10.0 mi ENE 6.9 mph - N/A   Partly Cloudy
12:36 PM 51.8 °F - 30.2 °F 44% 30.30 in 10.0 mi NNE 5.8 mph - N/A Rain Light Rain
12:52 PM 51.8 °F - 33.8 °F 50% 30.31 in 10.0 mi NNE 3.5 mph - N/A   Partly Cloudy
12:55 PM 52.3 °F - 34.3 °F 50% 30.31 in 10.0 mi North 3.5 mph - 0.00 in   Partly Cloudy
1:55 PM 52.9 °F - 34.9 °F 50% 30.27 in 10.0 mi East 3.5 mph - N/A   Partly Cloudy
2:55 PM 53.4 °F - 34.3 °F 48% 30.30 in 10.0 mi Variable 3.5 mph - N/A   Mostly Cloudy
3:55 PM 52.0 °F - 37.2 °F 57% 30.32 in 10.0 mi North 5.8 mph - N/A   Scattered Clouds
4:55 PM 50.4 °F - 38.3 °F 63% 30.32 in 10.0 mi Calm Calm - N/A   Clear
5:55 PM 48.9 °F - 39.4 °F 70% 30.31 in 10.0 mi ENE 4.6 mph - N/A   Partly Cloudy
6:55 PM 49.1 °F - 39.4 °F 69% 30.34 in 10.0 mi North 6.9 mph - N/A   Overcast
7:55 PM 50.2 °F - 35.4 °F 57% 30.30 in 10.0 mi NE 5.8 mph - N/A   Overcast
8:55 PM 49.6 °F - 35.4 °F 58% 30.27 in 10.0 mi ENE 6.9 mph - N/A   Mostly Cloudy
9:55 PM 48.6 °F - 35.8 °F 61% 30.27 in 10.0 mi NNE 3.5 mph - N/A   Clear
10:55 PM 47.8 °F - 35.2 °F 62% 30.26 in 10.0 mi NE 3.5 mph - N/A   Clear
11:55 PM 47.3 °F - 36.0 °F 65% 30.25 in 10.0 mi Calm Calm - N/A   Partly Cloudy